Regional Weather Roundup
Issued by NWS

Home | Current Version | Previous Version | Text Only | Print | Product List | Glossary Off
Versions: 1 2 3 4 5 6 7 8 9 10 11 12 13 14 15 16 17 18 19 20 21 22 23 24 25 26 27

000
ASUS45 KBOU 191007
RWRCO

WEATHER ROUNDUP FOR COLORADO
NATIONAL WEATHER SERVICE DENVER/BOULDER CO
300 AM MST THU JAN 19 2017

NOTE: "FAIR" INDICATES FEW OR NO CLOUDS BELOW 12000 FEET WITH NO
SIGNIFICANT WEATHER AND/OR OBSTRUCTIONS TO VISIBILITY.

COZ001>005-013-030-031-191100-
...NORTHWEST COLORADO...

CITY           SKY/WX    TMP DP  RH WIND       PRES   REMARKS
CRAIG          FAIR       2  -2  83 SW6       29.91F WCI  -9
HAYDEN         FAIR      14   9  79 E15       29.89F WCI  -1
MEEKER         FAIR      14  10  84 NE3       29.89F
MOUNT WERNER   NOT AVBL
STEAMBOAT SPGS FAIR       8   6  91 CALM      29.91F
WALDEN           N/A    N/A N/A N/A SE3       29.88F
$$

COZ006>008-011-191100-
...WEST CENTRAL VALLEYS...

CITY           SKY/WX    TMP DP  RH WIND       PRES   REMARKS
GRAND JUNCTION FAIR      26  25  96 SE6       29.93S WCI  19
MONTROSE       FAIR      25  21  85 SE9       29.97F WCI  15
EAGLE          FAIR       8   6  92 CALM      29.99F
RIFLE          FAIR      22  19  89 CALM      29.95F
DELTA          FAIR      28  25  87 NE7       29.96F WCI  21
NUCLA          FAIR      28  23  80 E9        29.98S WCI  20
$$

COZ017>023-064>068-191100-
...SOUTHWEST COLORADO...

CITY           SKY/WX    TMP DP  RH WIND       PRES   REMARKS
DURANGO        FAIR      23  20  88 CALM      29.92F
CORTEZ         FAIR      22  20  92 SE5       29.95F WCI  16
PAGOSA SPRINGS CLOUDY    30  30  99 CALM      29.93S
TELLURIDE      FAIR      18  12  76 SE6       29.96F WCI  10
WOLF CREEK PAS   N/A     14  14 100 SW8       29.95S WCI   3
$$

COZ009-010-012-014-032>034-037-058>063-191100-
...CENTRAL COLORADO...

CITY           SKY/WX    TMP DP  RH WIND       PRES   REMARKS
ASPEN          FAIR       9   5  84 S6        29.92S WCI  -1
BUENA VISTA    FAIR       9   6  88 CALM      29.83F
COPPER MTN     FAIR      23   9  54 MISG      29.91F
BERTHOUD PASS  NOT AVBL
COTTONWOOD PAS FAIR      32  10  40 NW9G17    29.81F WCI  24
GUNNISON       FAIR      -5  -9  83 NE3       30.00F
KREMMLING      FLURRIES   7   1  78 CALM      29.99S
LEADVILLE      FAIR      13   6  74 N6        29.87F WCI   4
MONARCH PASS   LGT SNOW  12  10  92 MISG      29.96F
SALIDA         FAIR      24  18  75 NW5       29.90S WCI  19
SUNLIGHT       FAIR      16  12  86 SW10      29.94F WCI   3
WILKERSON PASS FAIR      28   1  31 N18G31    29.83F WCI  16
$$

COZ069>075-191100-
...SAN LUIS VALLEY/SANGRE DE CRISTO MOUNTAINS...

CITY           SKY/WX    TMP DP  RH WIND       PRES   REMARKS
ALAMOSA        CLOUDY    22  21  96 W7        29.91F WCI  13
LA VETA PASS   CLOUDY    16  12  86 NE39G47   29.76S FOG     WCI  -7
SAGUACHE       CLOUDY    18  18 100 NW6       29.92F WCI   9
$$

COZ035-036-038>040-191100-
...NORTHERN COLORADO FRONT RANGE...

CITY           SKY/WX    TMP DP  RH WIND       PRES   REMARKS
DENVER INTL AP FAIR      32  14  47 SW6       29.64F WCI  26
DMNS CITY PARK   N/A     32  13  45 S8        29.64F WCI  25
AURORA         PTCLDY    30  13  48 S9        29.65F WCI  22
FRONT RANGE AP FAIR      36  16  44 S7        29.66F
ERIE MUNI ARPT FAIR      21  17  87 CALM      29.65F
BOULDER MUN AP FAIR      32  19  59 CALM      29.64F
CENTENNIAL     FAIR      25  12  58 CALM      29.65F
BROOMFIELD     FAIR      34  18  51 CALM      29.64F
FORT COLLINS   FAIR      28  19  69 W5        29.65F WCI  23
LONGMONT       FAIR      25  17  72 CALM      29.67F
$$

COZ041-046-047-076>085-087-088-191100-
...PIKES PEAK/PALMER DIVIDE AND SOUTHERN FOOTHILLS...

CITY           SKY/WX    TMP DP  RH WIND       PRES   REMARKS
COLO. SPRINGS  FAIR      36   9  32 N7        29.65F
A. F. ACADEMY  FAIR      29  10  44 NW7       29.66F WCI  22
SCHRIEVER AFB  NOT AVBL
ELLICOTT       FAIR     N/A N/A N/A NE5       29.64S
FALCON         FAIR      36   3  25 NW7       29.67F
FORT CARSON    CLEAR     36   9  32 S8        29.66F
LIMON          FAIR      19  15  84 N6        29.65S WCI  11
MONUMENT HILL  FAIR      27   9  46 W7        29.69F WCI  19
TRINIDAD       FAIR      17   9  70 NW14      29.65F WCI   3
$$

COZ042>045-048>051-090-091-191100-
...NORTHEAST COLORADO...

CITY           SKY/WX    TMP DP  RH WIND       PRES   REMARKS
GREELEY ARPT   FAIR      23  21  92 CALM      29.66F
AKRON          FAIR      26  18  71 W9        29.64F WCI  17
BURLINGTON     FAIR      28  24  85 W7        29.63F WCI  21
WRAY           NOT AVBL
STERLING       FAIR      21  19  93 CALM      29.65F
HOLYOKE        FAIR      21  18  86 NW7       29.65F WCI  13
FORT MORGAN    FAIR      23  20  89 W5        29.65F WCI  17
$$

COZ086-089-092>099-191100-
...SOUTHEAST COLORADO...

CITY           SKY/WX    TMP DP  RH WIND       PRES   REMARKS
PUEBLO         FAIR      24  21  88 CALM      29.64F
LA JUNTA       FAIR      22  19  89 W14       29.64F WCI   9
LAMAR          FAIR      21  19  92 SW8       29.62F WCI  11
SPRINGFIELD      N/A     27  22  81 NW9       29.60F WCI  18
$$




USA.gov is the U.S. government's official web portal to all federal, state and local government web resources and services.